Mission

  • Our mission is to promote and protect San Carlos Airport and its flight operations, and to enhance the safety and spirit of general aviation through participation in local community activities.

Background

  • The San Carlos Airport Association (SCAA) has represented pilots and friends of the Airport since our founding in 1986.

Noise Abatement Procedures

  • San Carlos Airport is surrounded by noise sensitive neighborhoods. All pilots are encouraged to follow the noise abatement procedures

Live View of San Carlos Airport (SQL)

San Carlos METAR

  • KSQL 220510Z AUTO 17005KT 10SM CLR 19/14 A3002 RMK AO2

    A METAR describes the current weather at an airport. Click here to learn how to read a METAR.


SQL Notams

  • Click here and enter KSQL in the Locations box to read the Notices to Airmen (Notams) about San Carlos Airport.

ASOS from Half Moon Bay Airport (HAF)

Chapter

Contact

  • Email: webmaster at sancarlosairport.org
  • twitter
  • Our mailing address:
    San Carlos Airport Association
    P.O. Box 1183
    San Carlos, CA 94070
 

Wed. 6/21/17: Annual Membership Mtg. at Hiller


SCAPA is pleased to announce that our annual membership meeting will be held at 7PM on Wed. June 21, 2017 at the Hiller Museum.

The program will feature a presentation by Karl Schweikert, attorney for the Aircraft Owners and Pilots Association.

We will also have our regular updates from the San Carlos Airport Manager and we will elect our new slate of Board members.